Weather History for Christmas Island, IS

Change the Weather History Date:

Wednesday, February 27, 2013

  Actual Average Record
Temperature  
Mean Temperature 80 °F -  
Max Temperature 83 °F 79 °F 83 °F (2013)
Min Temperature 77 °F 71 °F 68 °F (2001)
Cooling Degree Days 15    
Growing Degree Days 30 (Base 50)    
Moisture  
Dew Point 76 °F    
Average Humidity 86    
Maximum Humidity 94    
Minimum Humidity 71    
Precipitation  
Precipitation 0.24 in - - ()
Sea Level Pressure  
Sea Level Pressure 29.76 in    
Wind  
Wind Speed 11 mph ()    
Max Wind Speed 15 mph    
Max Gust Speed 28 mph    
Visibility 6.1 miles    
Events Rain    
Averages and records for this station are not official NWS values.
T = Trace of Precipitation, MM = Missing Value Source: Averaged Metar Reports

Daily Weather History Graph

Daily Weather History Graph

Search for Another Location

Airport:

Trip Planner

Search our weather history database for the weather conditions in past years. The results will help you decide how hot, cold, wet, or windy it might be!

Date:

Astronomy

Feb. 27, 2013 Rise Set
Actual Time 6:00 AM CXT 6:19 PM CXT
Civil Twilight 5:39 AM CXT 6:40 PM CXT
Nautical Twilight 5:14 AM CXT 7:05 PM CXT
Astronomical Twilight 4:49 AM CXT 7:30 PM CXT
Moon 7:17 PM CXT (2/27) 6:55 AM CXT (2/27)
Length of Visible Light 13h 01m
Length of Day
12h 19m
Full, 98% of the Moon is Illuminated
Feb 27
Full
Mar 5
Last Quarter
Mar 12
New
Mar 20
First Quarter
Mar 27
Full

Hourly Weather History & Observations

Time (CXT) Temp. Heat Index Dew Point Humidity Pressure Visibility Wind Dir Wind Speed Gust Speed Precip Events Conditions
12:00 AM 79 °F - 75 °F 83% 29.75 in - WNW 12.7 mph - -   Overcast
12:00 AM 78.8 °F - 75.2 °F 89% 29.80 in 6.2 mi WNW 12.7 mph - N/A   Mostly Cloudy
1:00 AM 79 °F - 75 °F 84% 29.74 in - WNW 11.5 mph - -  
1:00 AM 78.8 °F - 75.2 °F 89% 29.77 in 6.2 mi WNW 11.5 mph - N/A   Mostly Cloudy
2:00 AM 78.8 °F - 75.2 °F 89% 29.74 in 6.2 mi WNW 12.7 mph 24.2 mph N/A   Mostly Cloudy
3:00 AM 79 °F - 74 °F 82% 29.71 in - West 11.5 mph - -   Overcast
3:00 AM 78.8 °F - 75.2 °F 89% 29.74 in 6.2 mi West 11.5 mph - N/A   Overcast
4:00 AM 79 °F - 74 °F 81% 29.70 in - WNW 12.7 mph - -  
4:00 AM 78.8 °F - 75.2 °F 89% 29.74 in 6.2 mi WNW 12.7 mph 24.2 mph N/A   Mostly Cloudy
4:27 AM 78.8 °F - 73.4 °F 83% 29.74 in 6.2 mi WNW 11.5 mph - N/A   Mostly Cloudy
4:45 AM 78.8 °F - 75.2 °F 89% 29.74 in 6.2 mi WNW 11.5 mph - N/A   Mostly Cloudy
5:00 AM 78.8 °F - 75.2 °F 89% 29.74 in 6.2 mi WNW 11.5 mph - N/A   Overcast
5:56 AM 78.8 °F - 73.4 °F 83% 29.74 in 6.2 mi WNW 13.8 mph 27.6 mph N/A   Mostly Cloudy
6:00 AM 79 °F - 74 °F 79% 29.72 in - WNW 15.0 mph - -   Overcast
6:00 AM 78.8 °F - 73.4 °F 83% 29.77 in 6.2 mi WNW 15.0 mph 27.6 mph N/A   Mostly Cloudy
6:41 AM 78.8 °F - 75.2 °F 89% 29.77 in 6.2 mi WNW 10.4 mph 25.3 mph N/A   Mostly Cloudy
6:57 AM 78.8 °F - 75.2 °F 89% 29.77 in 6.2 mi WNW 11.5 mph - N/A   Mostly Cloudy
7:00 AM 80 °F - 75 °F 81% 29.74 in - West 11.5 mph - -  
7:00 AM 78.8 °F - 75.2 °F 89% 29.77 in 6.2 mi West 11.5 mph - N/A   Mostly Cloudy
7:16 AM 78.8 °F - 77.0 °F 94% 29.80 in 6.2 mi WNW 11.5 mph - N/A Rain Light Rain
7:32 AM 78.8 °F - 75.2 °F 89% 29.80 in 6.2 mi West 11.5 mph - N/A Rain Light Rain Showers
8:00 AM 78.8 °F - 77.0 °F 94% 29.80 in 6.2 mi West 9.2 mph - N/A Rain Light Rain Showers
8:50 AM 82.4 °F 90.9 °F 77.0 °F 84% 29.80 in 6.2 mi WNW 11.5 mph - N/A   Overcast
9:00 AM 81 °F - 76 °F 82% 29.78 in - WNW 11.5 mph - -   Overcast
9:00 AM 80.6 °F 87.1 °F 77.0 °F 89% 29.80 in 6.2 mi WNW 11.5 mph 24.2 mph N/A   Mostly Cloudy
9:10 AM 78.8 °F - 77.0 °F 94% 29.80 in 3.7 mi WNW 11.5 mph - N/A Rain Light Rain Showers
9:20 AM 78.8 °F - 77.0 °F 94% 29.80 in 6.2 mi WNW 10.4 mph - N/A Rain Light Rain Showers
9:30 AM 80.6 °F 87.1 °F 77.0 °F 89% 29.80 in 6.2 mi WNW 12.7 mph 24.2 mph N/A   Scattered Clouds
10:00 AM 81 °F - 77 °F 85% 29.77 in - WNW 10.4 mph - -  
10:00 AM 80.6 °F 87.1 °F 77.0 °F 89% 29.80 in 6.2 mi WNW 10.4 mph 21.9 mph N/A   Overcast
11:00 AM 80.6 °F 86.2 °F 75.2 °F 84% 29.80 in 6.2 mi WNW 11.5 mph - N/A   Overcast
11:50 AM 82.4 °F 90.9 °F 77.0 °F 84% 29.80 in 6.2 mi WNW 11.5 mph - N/A   Mostly Cloudy
12:00 PM 83 °F - 75 °F 71% 29.75 in - WNW 12.7 mph - -   Overcast
12:00 PM 82.4 °F 89.5 °F 75.2 °F 79% 29.77 in 6.2 mi WNW 12.7 mph 24.2 mph N/A   Mostly Cloudy
1:00 PM 82 °F - 76 °F 78% 29.73 in - NW 15.0 mph - -  
1:00 PM 82.4 °F 90.9 °F 77.0 °F 84% 29.77 in 6.2 mi NW 15.0 mph - N/A   Overcast
1:03 PM 82.4 °F 90.9 °F 77.0 °F 84% 29.77 in 6.2 mi NW 13.8 mph - N/A   Overcast
2:00 PM 82.4 °F 89.5 °F 75.2 °F 79% 29.74 in 6.2 mi WNW 13.8 mph 25.3 mph N/A   Mostly Cloudy
2:16 PM 82.4 °F 90.9 °F 77.0 °F 84% 29.74 in 6.2 mi WNW 12.7 mph 25.3 mph N/A   Overcast
3:00 PM 81 °F - 76 °F 80% 29.70 in - NW 12.7 mph - -   Overcast
3:00 PM 80.6 °F 86.2 °F 75.2 °F 84% 29.74 in 6.2 mi NW 12.7 mph - N/A   Overcast
4:00 PM 80 °F - 77 °F 87% 29.69 in - WNW 10.4 mph - -  
4:00 PM 80.6 °F 87.1 °F 77.0 °F 89% 29.74 in - WNW 10.4 mph - N/A   Overcast
5:00 PM 78.8 °F - 75.2 °F 89% 29.74 in - WNW 13.8 mph 26.5 mph N/A   Overcast
5:13 PM 80.6 °F 86.2 °F 75.2 °F 84% 29.74 in - WNW 12.7 mph - N/A   Mostly Cloudy
5:29 PM 80.6 °F 87.1 °F 77.0 °F 89% 29.74 in - WNW 11.5 mph 24.2 mph N/A   Overcast
6:00 PM 80 °F - 77 °F 87% 29.71 in - WNW 9.2 mph - -   Overcast
6:00 PM 80.6 °F 87.1 °F 77.0 °F 89% 29.74 in - WNW 9.2 mph 20.7 mph N/A   Overcast
7:00 PM 79 °F - 76 °F 87% 29.73 in - WNW 11.5 mph - -  
7:00 PM 78.8 °F - 75.2 °F 89% 29.77 in 6.2 mi WNW 11.5 mph 25.3 mph N/A   Mostly Cloudy
7:57 PM 78.8 °F - 75.2 °F 89% 29.80 in 6.2 mi WNW 10.4 mph 21.9 mph N/A   Mostly Cloudy
8:00 PM 78.8 °F - 75.2 °F 89% 29.80 in 6.2 mi WNW 11.5 mph - N/A   Mostly Cloudy
8:22 PM 78.8 °F - 75.2 °F 89% 29.80 in 6.2 mi West 12.7 mph 26.5 mph N/A   Overcast
9:00 PM 79 °F - 75 °F 83% 29.76 in - WNW 11.5 mph - -   Overcast
9:05 PM 78.8 °F - 75.2 °F 89% 29.80 in 6.2 mi WNW 10.4 mph - N/A   Overcast
9:17 PM 78.8 °F - 75.2 °F 89% 29.80 in 6.2 mi WNW 10.4 mph - N/A Rain Light Rain Showers
9:40 PM 78.8 °F - 75.2 °F 89% 29.80 in 6.2 mi WNW 10.4 mph - N/A   Overcast
9:50 PM 78.8 °F - 75.2 °F 89% 29.80 in 6.2 mi WNW 10.4 mph - N/A   Overcast
10:00 PM 79 °F - 75 °F 83% 29.77 in - WNW 12.7 mph - -  
10:00 PM 78.8 °F - 75.2 °F 89% 29.80 in 6.2 mi WNW 12.7 mph - N/A   Overcast
10:35 PM 78.8 °F - 75.2 °F 89% 29.80 in 6.2 mi WNW 11.5 mph - N/A   Overcast
11:00 PM 77.0 °F - 75.2 °F 94% 29.80 in 6.2 mi WNW 11.5 mph - N/A Rain Light Rain Showers
11:17 PM 77.0 °F - 73.4 °F 89% 29.80 in 6.2 mi West 9.2 mph - N/A   Scattered Clouds